CUA1692 ZGSD-ZBAA

Flight info

Callsign CUA1692
Flight time N/A
Altitude 35100
Route GOBLO DCT TEPID W22 YIN A461 BUBDA W56 DUGEB
Aircraft B738/M-SDE2E3FGHIRWXY/LB1

Departure

Time 2026-05-08 12:17
Airport Zhuhai Jinwan Airport (ZGSD)

Arrival

Time N/A
Airport Beijing Capital International Airport (ZBAA)
Time Latitude Longitude Altitude Speed Heading
2026-05-08 12:01 22.00889 113.37161 28 ft 0 kts 45°
2026-05-08 12:08 22.00889 113.37160 28 ft 1 kts 45°
2026-05-08 12:08 22.00872 113.37143 27 ft 4 kts 45°
2026-05-08 12:08 22.00856 113.37126 27 ft 2 kts 45°
2026-05-08 12:09 22.00843 113.37107 27 ft 4 kts 102°
2026-05-08 12:09 22.00856 113.37087 27 ft 4 kts 134°
2026-05-08 12:09 22.00872 113.37069 27 ft 1 kts 134°
2026-05-08 12:11 22.00867 113.37075 27 ft 3 kts 134°
2026-05-08 12:11 22.00832 113.37113 28 ft 11 kts 134°
2026-05-08 12:12 22.00771 113.37178 27 ft 13 kts 135°
2026-05-08 12:12 22.00709 113.37245 27 ft 12 kts 135°
2026-05-08 12:12 22.00649 113.37310 27 ft 12 kts 135°
2026-05-08 12:12 22.00578 113.37312 27 ft 12 kts 221°
2026-05-08 12:13 22.00519 113.37249 29 ft 13 kts 225°
2026-05-08 12:13 22.00447 113.37172 27 ft 17 kts 224°
2026-05-08 12:13 22.00356 113.37075 27 ft 20 kts 224°
2026-05-08 12:13 22.00247 113.36960 27 ft 23 kts 224°
2026-05-08 12:14 22.00125 113.36831 27 ft 26 kts 225°
2026-05-08 12:14 21.99993 113.36690 28 ft 28 kts 224°
2026-05-08 12:14 21.99851 113.36539 28 ft 29 kts 225°
2026-05-08 12:14 21.99715 113.36394 27 ft 27 kts 224°
2026-05-08 12:15 21.99583 113.36254 27 ft 24 kts 224°
2026-05-08 12:15 21.99500 113.36209 27 ft 10 kts 158°
2026-05-08 12:15 21.99449 113.36258 30 ft 10 kts 135°
2026-05-08 12:15 21.99411 113.36314 28 ft 9 kts 86°
2026-05-08 12:16 21.99455 113.36370 27 ft 13 kts 44°
2026-05-08 12:16 21.99669 113.36598 29 ft 79 kts 45°
2026-05-08 12:16 22.00216 113.37179 28 ft 142 kts 44°
2026-05-08 12:16 22.01042 113.38064 104 ft 188 kts 45°
2026-05-08 12:17 22.01985 113.39067 849 ft 187 kts 43°
2026-05-08 12:17 22.02887 113.40016 1865 ft 175 kts 42°
2026-05-08 12:17 22.03761 113.40944 2533 ft 184 kts 43°
2026-05-08 12:17 22.04715 113.41965 2988 ft 199 kts 44°
2026-05-08 12:18 22.05736 113.43059 3252 ft 220 kts 45°
2026-05-08 12:18 22.06880 113.44275 3450 ft 239 kts 43°
2026-05-08 12:18 22.08134 113.45498 3249 ft 245 kts 41°
2026-05-08 12:18 22.09418 113.46716 2981 ft 248 kts 41°
2026-05-08 12:19 22.10707 113.47934 2810 ft 244 kts 41°
2026-05-08 12:19 22.11962 113.49128 2726 ft 236 kts 41°
2026-05-08 12:19 22.13176 113.50292 2696 ft 233 kts 41°
2026-05-08 12:19 22.14393 113.51459 2655 ft 235 kts 41°
2026-05-08 12:20 22.15614 113.52632 2662 ft 236 kts 41°
2026-05-08 12:20 22.16854 113.53821 2654 ft 240 kts 41°
2026-05-08 12:20 22.18133 113.55048 2751 ft 255 kts 41°
2026-05-08 12:20 22.19491 113.56351 3338 ft 264 kts 41°
2026-05-08 12:21 22.20870 113.57675 4126 ft 266 kts 41°
2026-05-08 12:21 22.22264 113.59014 4871 ft 271 kts 41°
2026-05-08 12:21 22.23679 113.60374 5592 ft 275 kts 41°
2026-05-08 12:21 22.25128 113.61740 6305 ft 279 kts 39°
2026-05-08 12:22 22.26652 113.63065 6952 ft 284 kts 38°
2026-05-08 12:22 22.28204 113.64382 7669 ft 286 kts 37°
2026-05-08 12:22 22.29771 113.65711 8352 ft 289 kts 37°
2026-05-08 12:22 22.31357 113.67062 9034 ft 292 kts 37°
2026-05-08 12:23 22.32965 113.68435 9713 ft 296 kts 37°
2026-05-08 12:23 22.34609 113.69843 10273 ft 303 kts 37°
2026-05-08 12:23 22.36300 113.71293 10458 ft 325 kts 37°
2026-05-08 12:23 22.38147 113.72880 10613 ft 345 kts 37°
2026-05-08 12:24 22.40078 113.74541 10754 ft 364 kts 38°
2026-05-08 12:24 22.42097 113.76277 10882 ft 381 kts 38°
2026-05-08 12:24 22.44218 113.78103 10995 ft 396 kts 38°
2026-05-08 12:24 22.46359 113.80041 11240 ft 406 kts 40°
2026-05-08 12:25 22.48471 113.82052 11807 ft 405 kts 40°
2026-05-08 12:25 22.50582 113.84083 12372 ft 405 kts 40°
2026-05-08 12:25 22.52695 113.86108 12799 ft 409 kts 40°
2026-05-08 12:25 22.54851 113.88163 13142 ft 415 kts 40°
2026-05-08 12:26 22.57031 113.90231 13583 ft 418 kts 40°
2026-05-08 12:26 22.59216 113.92301 14005 ft 420 kts 40°
2026-05-08 12:26 22.61429 113.94395 14382 ft 423 kts 40°
2026-05-08 12:26 22.63656 113.96501 14745 ft 426 kts 39°
2026-05-08 12:27 22.66121 113.98244 15037 ft 427 kts 20°
2026-05-08 12:27 22.68993 113.98957 15418 ft 424 kts
2026-05-08 12:27 22.71938 113.98884 15772 ft 423 kts 347°
2026-05-08 12:27 22.74744 113.97939 16120 ft 423 kts 337°
2026-05-08 12:28 22.77480 113.96765 16462 ft 425 kts 336°
2026-05-08 12:28 22.80234 113.95547 16790 ft 428 kts 335°
2026-05-08 12:28 22.82988 113.94330 17186 ft 428 kts 336°
2026-05-08 12:28 22.85757 113.93118 17535 ft 430 kts 336°
2026-05-08 12:29 22.88551 113.91908 17835 ft 433 kts 336°
2026-05-08 12:29 22.91353 113.90704 18147 ft 435 kts 336°
2026-05-08 12:29 22.94183 113.89495 18419 ft 437 kts 336°
2026-05-08 12:29 22.97022 113.88284 18711 ft 438 kts 336°
2026-05-08 12:30 22.99862 113.87073 19021 ft 439 kts 336°
2026-05-08 12:30 23.02705 113.85860 19312 ft 439 kts 336°
2026-05-08 12:30 23.05556 113.84642 19588 ft 441 kts 336°
2026-05-08 12:30 23.08410 113.83422 19855 ft 442 kts 336°
2026-05-08 12:31 23.11275 113.82196 20121 ft 443 kts 336°
2026-05-08 12:31 23.14140 113.80970 20416 ft 443 kts 336°
2026-05-08 12:31 23.17007 113.79743 20728 ft 443 kts 336°
2026-05-08 12:31 23.19872 113.78515 20972 ft 444 kts 336°
2026-05-08 12:32 23.22755 113.77279 21203 ft 445 kts 336°
2026-05-08 12:32 23.25628 113.76031 21441 ft 446 kts 334°
2026-05-08 12:32 23.28339 113.74410 21670 ft 444 kts 323°
2026-05-08 12:32 23.30742 113.72308 21998 ft 441 kts 315°
2026-05-08 12:33 23.32766 113.69938 22245 ft 439 kts 307°